User: anonymous   Login
Location: Keppel Henge
(44.7900°N, 80.9447°W)
Time: 21:14:31
(UTC-04:00)
Language:

N. Korean satellite - Orbit

View from above orbital plane
View from above orbital plane
View from above satellite
View from above satellite

Ground track
Ground track

The orbit data is extracted from the following two-line orbital elements,

1 39026U 12072A   17294.59371166 +.00001887 +00000-0 +74471-4 0  9994
2 39026 097.2194 308.1208 0041961 089.3871 271.2175 15.25939930269203
Epoch (UTC): 21 October 2017 14:14:56
Eccentricity: 0.0041961
inclination: 97.2194°
perigee height: 459 km
apogee height: 517 km
right ascension of ascending node: 308.1208°
argument of perigee: 89.3871°
revolutions per day: 15.25939930
mean anomaly at epoch: 271.2175°
orbit number at epoch: 26920

The dashed part of the orbit path shows where the satellite is in the earth's shadow,  

DLR